Location: Hamburg
(53.5554°N, 9.9941°E)
Time: 09:22:32
(UTC+01:00)

OTV 5 (USA 277) - Visible Passes

Search period start: 22 January 2018 00:00
Search period end: 01 February 2018 00:00
Orbit: 404 x 417 km, 43.0° (Epoch: 07 September)

Date Brightness Start Highest point End Pass type
(mag) Time Alt. Az. Time Alt. Az. Time Alt. Az.
27 Jan ? 19:07:42 10° SSW 19:09:24 13° S 19:09:24 13° S visible
28 Jan ? 18:17:07 10° SSW 18:18:35 12° S 18:20:03 10° SE visible
28 Jan ? 19:53:18 10° SW 19:53:32 11° SW 19:53:32 11° SW visible
29 Jan ? 19:02:19 10° SW 19:04:11 14° S 19:04:55 13° SSE visible
30 Jan ? 18:11:27 10° SSW 18:13:19 14° S 18:15:11 10° SE visible
30 Jan ? 19:48:51 10° SSW 19:49:06 10° SSW 19:49:06 10° SSW visible
31 Jan ? 18:57:26 10° SW 18:58:54 12° SSW 19:00:23 10° SSE visible
